| time (UTC) | temp F | wind direction | speed MPH | gust MPH | rain 1hr in | rain 24hr in | rain mn in | humidity % | barometer mb |
| 20260904172324 | 65 | 262 | 4.0 | 13.0 | 0.00 | 0.55 | 0.11 | 88 | 1007.5 |
| 20260904171826 | 64 | 250 | 7.0 | 13.0 | 0.00 | 0.55 | 0.11 | 90 | 1007.7 |
| 20260904171331 | 64 | 313 | 6.0 | 15.0 | 0.00 | 0.55 | 0.11 | 93 | 1007.7 |
| 20260904170836 | 63 | 275 | 5.0 | 18.0 | 0.12 | 0.55 | 0.11 | 96 | 1007.5 |
| 20260904170317 | 63 | 274 | 6.0 | 18.0 | 0.55 | 0.55 | 0.11 | 97 | 1007.4 |
| 20260904165819 | 63 | 271 | 8.0 | 18.0 | 0.55 | 0.55 | 0.11 | 97 | 1007.5 |
| 20260904165323 | 63 | 293 | 5.0 | 14.0 | 0.55 | 0.55 | 0.11 | 97 | 1007.5 |
| 20260904164826 | 63 | 281 | 5.0 | 19.0 | 0.55 | 0.55 | 0.11 | 96 | 1007.1 |
| 20260904164329 | 63 | 292 | 8.0 | 23.0 | 0.55 | 0.55 | 0.11 | 96 | 1006.9 |
| 20260904163832 | 63 | 321 | 7.0 | 23.0 | 0.55 | 0.55 | 0.11 | 96 | 1007.0 |
| 20260904163313 | 63 | 307 | 5.0 | 13.0 | 0.55 | 0.55 | 0.11 | 96 | 1007.2 |
| 20260904162816 | 64 | 265 | 4.0 | 13.0 | 0.55 | 0.55 | 0.11 | 96 | 1007.0 |
| 20260904162319 | 64 | 325 | 5.0 | 24.0 | 0.55 | 0.55 | 0.11 | 95 | 1007.0 |
| 20260904161822 | 65 | 300 | 8.0 | 33.0 | 0.55 | 0.55 | 0.11 | 92 | 1006.9 |
| 20260904161324 | 67 | 297 | 12.0 | 34.0 | 0.55 | 0.55 | 0.11 | 90 | 1007.4 |
| 20260904160825 | 73 | 304 | 16.0 | 34.0 | 0.43 | 0.43 | 0.09 | 82 | 1007.0 |
| 20260904160347 | 80 | 274 | 11.0 | 26.0 | 0.00 | 0.00 | 0.00 | 66 | 1005.3 |
| 20260904155829 | 80 | 250 | 14.0 | 26.0 | 0.00 | 0.00 | 0.00 | 64 | 1004.8 |
| 20260904155330 | 80 | 274 | 12.0 | 22.0 | 0.00 | 0.00 | 0.00 | 64 | 1004.8 |
| 20260904154852 | 80 | 258 | 7.0 | 18.0 | 0.00 | 0.00 | 0.00 | 65 | 1004.7 |
| 20260904154313 | 80 | 280 | 9.0 | 18.0 | 0.00 | 0.00 | 0.00 | 65 | 1004.8 |
| 20260904153815 | 80 | 258 | 9.0 | 18.0 | 0.00 | 0.00 | 0.00 | 64 | 1004.8 |
| 20260904153336 | 80 | 249 | 8.0 | 19.0 | 0.00 | 0.00 | 0.00 | 65 | 1004.8 |
| 20260904152816 | 80 | 260 | 11.0 | 22.0 | 0.00 | 0.00 | 0.00 | 64 | 1004.8 |
| 20260904152337 | 80 | 246 | 12.0 | 23.0 | 0.00 | 0.00 | 0.00 | 64 | 1004.8 |
| 20260904151818 | 80 | 239 | 9.0 | 26.0 | 0.00 | 0.00 | 0.00 | 65 | 1004.9 |
| 20260904151319 | 80 | 277 | 12.0 | 26.0 | 0.00 | 0.00 | 0.00 | 65 | 1005.0 |
| 20260904150823 | 80 | 278 | 11.0 | 25.0 | 0.00 | 0.00 | 0.00 | 65 | 1005.0 |
| 20260904150347 | 80 | 279 | 15.0 | 31.0 | 0.00 | 0.00 | 0.00 | 65 | 1005.5 |
| 20260904145829 | 80 | 274 | 13.0 | 31.0 | 0.00 | 0.00 | 0.00 | 65 | 1004.9 |
| 20260904145330 | 80 | 267 | 9.0 | 25.0 | 0.00 | 0.00 | 0.00 | 65 | 1005.2 |
| 20260904144813 | 80 | 283 | 12.0 | 25.0 | 0.00 | 0.00 | 0.00 | 65 | 1005.4 |
| 20260904144316 | 80 | 181 | 7.0 | 29.0 | 0.00 | 0.00 | 0.00 | 66 | 1005.1 |
| 20260904143819 | 80 | 234 | 12.0 | 29.0 | 0.00 | 0.00 | 0.00 | 66 | 1005.3 |
| 20260904143319 | 79 | 256 | 12.0 | 23.0 | 0.00 | 0.00 | 0.00 | 66 | 1005.3 |
| 20260904142822 | 79 | 248 | 9.0 | 26.0 | 0.00 | 0.00 | 0.00 | 66 | 1005.4 |
| 20260904142326 | 79 | 279 | 12.0 | 26.0 | 0.00 | 0.00 | 0.00 | 66 | 1005.4 |
| 20260904141847 | 79 | 222 | 8.0 | 22.0 | 0.00 | 0.00 | 0.00 | 67 | 1005.4 |
| 20260904141326 | 79 | 244 | 10.0 | 22.0 | 0.00 | 0.00 | 0.00 | 67 | 1005.6 |
| 20260904140828 | 79 | 262 | 10.0 | 21.0 | 0.00 | 0.00 | 0.00 | 67 | 1005.7 |
| 20260904140332 | 79 | 217 | 10.0 | 21.0 | 0.00 | 0.00 | 0.00 | 67 | 1005.8 |
| 20260904135815 | 79 | 278 | 10.0 | 19.0 | 0.00 | 0.00 | 0.00 | 67 | 1005.8 |
| 20260904135320 | 79 | 264 | 9.0 | 21.0 | 0.00 | 0.00 | 0.00 | 67 | 1005.9 |
| 20260904134824 | 79 | 272 | 11.0 | 22.0 | 0.00 | 0.00 | 0.00 | 67 | 1005.8 |
| 20260904134327 | 79 | 280 | 7.0 | 22.0 | 0.00 | 0.00 | 0.00 | 67 | 1005.9 |
| 20260904133829 | 79 | 229 | 9.0 | 19.0 | 0.00 | 0.00 | 0.00 | 67 | 1006.0 |
| 20260904133313 | 79 | 278 | 9.0 | 19.0 | 0.00 | 0.00 | 0.00 | 67 | 1006.2 |
| 20260904132815 | 78 | 283 | 6.0 | 19.0 | 0.00 | 0.00 | 0.00 | 68 | 1006.1 |
| 20260904132317 | 78 | 259 | 9.0 | 19.0 | 0.00 | 0.00 | 0.00 | 68 | 1006.2 |
| 20260904131819 | 78 | 198 | 11.0 | 19.0 | 0.00 | 0.00 | 0.00 | 68 | 1006.3 |
| 20260904131319 | 78 | 190 | 7.0 | 20.0 | 0.00 | 0.00 | 0.00 | 69 | 1006.4 |
| 20260904130842 | 78 | 243 | 8.0 | 20.0 | 0.00 | 0.00 | 0.00 | 69 | 1006.4 |
| 20260904130321 | 78 | 256 | 12.0 | 20.0 | 0.00 | 0.00 | 0.00 | 69 | 1006.5 |
| 20260904125821 | 77 | 230 | 8.0 | 17.0 | 0.00 | 0.00 | 0.00 | 69 | 1006.6 |
| 20260904125321 | 77 | 238 | 9.0 | 16.0 | 0.00 | 0.00 | 0.00 | 69 | 1006.8 |
| 20260904124821 | 77 | 210 | 7.0 | 16.0 | 0.00 | 0.00 | 0.00 | 69 | 1006.9 |
| 20260904124324 | 77 | 232 | 8.0 | 15.0 | 0.00 | 0.00 | 0.00 | 68 | 1006.9 |
| 20260904123826 | 78 | 264 | 8.0 | 19.0 | 0.00 | 0.00 | 0.00 | 68 | 1007.0 |
| 20260904123329 | 78 | 232 | 10.0 | 19.0 | 0.00 | 0.00 | 0.00 | 68 | 1007.1 |
| 20260904122831 | 77 | 263 | 8.0 | 20.0 | 0.00 | 0.00 | 0.00 | 67 | 1007.2 |
| 20260904122313 | 77 | 238 | 9.0 | 20.0 | 0.00 | 0.00 | 0.00 | 67 | 1007.3 |
| 20260904121815 | 77 | 264 | 5.0 | 17.0 | 0.00 | 0.00 | 0.00 | 68 | 1007.4 |
| 20260904121317 | 77 | 271 | 11.0 | 18.0 | 0.00 | 0.00 | 0.00 | 68 | 1007.4 |
| 20260904120819 | 77 | 239 | 10.0 | 18.0 | 0.00 | 0.00 | 0.00 | 68 | 1007.5 |
| 20260904120322 | 77 | 236 | 6.0 | 18.0 | 0.00 | 0.00 | 0.00 | 68 | 1007.6 |
| 20260904115824 | 77 | 259 | 8.0 | 15.0 | 0.00 | 0.00 | 0.00 | 69 | 1007.8 |
| 20260904115327 | 76 | 265 | 8.0 | 22.0 | 0.00 | 0.00 | 0.00 | 69 | 1007.9 |
| 20260904114830 | 76 | 266 | 11.0 | 22.0 | 0.00 | 0.00 | 0.00 | 69 | 1008.0 |
| 20260904114313 | 77 | 257 | 10.0 | 21.0 | 0.00 | 0.00 | 0.00 | 69 | 1008.1 |
| 20260904113815 | 77 | 259 | 11.0 | 21.0 | 0.00 | 0.00 | 0.00 | 69 | 1008.2 |
| 20260904113315 | 77 | 261 | 10.0 | 22.0 | 0.00 | 0.00 | 0.00 | 69 | 1008.2 |
| 20260904112816 | 77 | 268 | 9.0 | 22.0 | 0.00 | 0.00 | 0.00 | 69 | 1008.2 |
| 20260904112317 | 76 | 259 | 10.0 | 18.0 | 0.00 | 0.00 | 0.00 | 70 | 1008.3 |
| 20260904111838 | 76 | 282 | 10.0 | 18.0 | 0.00 | 0.00 | 0.00 | 71 | 1008.4 |
| 20260904111318 | 76 | 286 | 9.0 | 15.0 | 0.00 | 0.00 | 0.00 | 71 | 1008.6 |
| 20260904110837 | 75 | 246 | 8.0 | 19.0 | 0.00 | 0.00 | 0.00 | 72 | 1008.7 |
| 20260904110318 | 75 | 279 | 12.0 | 22.0 | 0.00 | 0.00 | 0.00 | 72 | 1008.8 |
| 20260904105820 | 75 | 209 | 8.0 | 22.0 | 0.00 | 0.00 | 0.00 | 72 | 1008.9 |
| 20260904105323 | 75 | 266 | 5.0 | 21.0 | 0.00 | 0.00 | 0.00 | 72 | 1009.0 |
| 20260904104826 | 75 | 243 | 10.0 | 21.0 | 0.00 | 0.00 | 0.00 | 72 | 1009.0 |
| 20260904104328 | 75 | 333 | 11.0 | 21.0 | 0.00 | 0.00 | 0.00 | 72 | 1009.1 |
| 20260904103831 | 75 | 226 | 9.0 | 21.0 | 0.00 | 0.00 | 0.00 | 73 | 1009.1 |
| 20260904103332 | 74 | 245 | 11.0 | 19.0 | 0.00 | 0.00 | 0.00 | 73 | 1009.1 |
| 20260904102850 | 74 | 255 | 7.0 | 19.0 | 0.00 | 0.00 | 0.00 | 74 | 1009.0 |
| 20260904102329 | 74 | 250 | 6.0 | 16.0 | 0.00 | 0.00 | 0.00 | 75 | 1009.3 |
| 20260904101830 | 73 | 273 | 7.0 | 19.0 | 0.00 | 0.00 | 0.00 | 75 | 1009.2 |
| 20260904101350 | 73 | 351 | 9.0 | 19.0 | 0.00 | 0.00 | 0.00 | 76 | 1009.5 |
| 20260904100813 | 73 | 264 | 10.0 | 18.0 | 0.00 | 0.00 | 0.00 | 76 | 1009.6 |
| 20260904100317 | 72 | 260 | 8.0 | 16.0 | 0.00 | 0.00 | 0.00 | 77 | 1009.5 |
| 20260904095819 | 72 | 276 | 8.0 | 16.0 | 0.00 | 0.00 | 0.00 | 77 | 1009.5 |
| 20260904095321 | 72 | 242 | 5.0 | 18.0 | 0.00 | 0.00 | 0.00 | 77 | 1009.7 |
| 20260904094823 | 72 | 219 | 9.0 | 18.0 | 0.00 | 0.00 | 0.00 | 77 | 1009.7 |
| 20260904094324 | 72 | 79 | 5.0 | 21.0 | 0.00 | 0.00 | 0.00 | 78 | 1009.7 |
| 20260904093824 | 73 | 275 | 11.0 | 21.0 | 0.00 | 0.00 | 0.00 | 77 | 1009.8 |
| 20260904093324 | 73 | 269 | 8.0 | 15.0 | 0.00 | 0.00 | 0.00 | 78 | 1010.0 |
| 20260904092825 | 73 | 262 | 8.0 | 15.0 | 0.00 | 0.00 | 0.00 | 78 | 1010.2 |
| 20260904092323 | 72 | 282 | 6.0 | 13.0 | 0.00 | 0.00 | 0.00 | 79 | 1010.4 |
| 20260904091824 | 72 | 210 | 6.0 | 17.0 | 0.00 | 0.00 | 0.00 | 79 | 1010.5 |
| 20260904091326 | 72 | 225 | 6.0 | 17.0 | 0.00 | 0.00 | 0.00 | 79 | 1010.5 |
| 20260904090829 | 72 | 258 | 9.0 | 16.0 | 0.00 | 0.00 | 0.00 | 79 | 1010.6 |
| 20260904090351 | 72 | 249 | 9.0 | 16.0 | 0.00 | 0.00 | 0.00 | 78 | 1010.7 |
| 20260904085832 | 72 | 232 | 7.0 | 15.0 | 0.00 | 0.00 | 0.00 | 79 | 1010.7 |
| 20260904085312 | 71 | 280 | 8.0 | 24.0 | 0.00 | 0.00 | 0.00 | 79 | 1010.8 |
| 20260904084814 | 71 | 236 | 8.0 | 24.0 | 0.00 | 0.00 | 0.00 | 80 | 1010.8 |
| 20260904084315 | 71 | 226 | 10.0 | 18.0 | 0.00 | 0.00 | 0.00 | 80 | 1010.8 |
| 20260904083836 | 71 | 141 | 7.0 | 14.0 | 0.00 | 0.00 | 0.00 | 80 | 1010.9 |
| 20260904083341 | 71 | 283 | 8.0 | 18.0 | 0.00 | 0.00 | 0.00 | 80 | 1010.9 |
| 20260904082824 | 71 | 163 | 6.0 | 18.0 | 0.00 | 0.00 | 0.00 | 80 | 1011.0 |
| 20260904082323 | 71 | 215 | 5.0 | 12.0 | 0.00 | 0.00 | 0.00 | 81 | 1011.0 |
| 20260904081823 | 70 | 255 | 6.0 | 12.0 | 0.00 | 0.00 | 0.00 | 81 | 1011.1 |
| 20260904081324 | 70 | 172 | 6.0 | 14.0 | 0.00 | 0.00 | 0.00 | 81 | 1011.2 |
| 20260904080824 | 70 | 277 | 7.0 | 15.0 | 0.00 | 0.00 | 0.00 | 81 | 1011.3 |
| 20260904080325 | 69 | 207 | 6.0 | 15.0 | 0.00 | 0.00 | 0.00 | 82 | 1011.4 |
| 20260904075826 | 69 | 280 | 7.0 | 16.0 | 0.00 | 0.00 | 0.00 | 81 | 1011.3 |
| 20260904075327 | 69 | 239 | 6.0 | 16.0 | 0.00 | 0.00 | 0.00 | 81 | 1011.2 |
| 20260904074329 | 69 | 241 | 6.0 | 10.0 | 0.00 | 0.00 | 0.00 | 81 | 1011.3 |
| 20260904073829 | 69 | 288 | 5.0 | 11.0 | 0.00 | 0.00 | 0.00 | 82 | 1011.3 |
| 20260904073346 | 69 | 184 | 5.0 | 12.0 | 0.00 | 0.00 | 0.00 | 82 | 1011.5 |
| 20260904072825 | 69 | 246 | 6.0 | 14.0 | 0.00 | 0.00 | 0.00 | 82 | 1011.7 |
| 20260904072326 | 68 | 258 | 8.0 | 14.0 | 0.00 | 0.00 | 0.00 | 82 | 1011.8 |
| 20260904071827 | 68 | 238 | 7.0 | 13.0 | 0.00 | 0.00 | 0.00 | 83 | 1011.9 |
| 20260904071328 | 68 | 238 | 5.0 | 10.0 | 0.00 | 0.00 | 0.00 | 83 | 1011.9 |
| 20260904070829 | 68 | 235 | 4.0 | 10.0 | 0.00 | 0.00 | 0.00 | 83 | 1012.1 |
| 20260904070330 | 68 | 245 | 5.0 | 10.0 | 0.00 | 0.00 | 0.00 | 83 | 1012.1 |
| 20260904065831 | 68 | 215 | 3.0 | 9.0 | 0.00 | 0.00 | 0.00 | 83 | 1012.0 |
| 20260904065313 | 68 | 217 | 3.0 | 9.0 | 0.00 | 0.00 | 0.00 | 84 | 1011.9 |
| 20260904064836 | 68 | 227 | 4.0 | 9.0 | 0.00 | 0.00 | 0.00 | 84 | 1011.9 |
| 20260904064318 | 67 | 224 | 5.0 | 8.0 | 0.00 | 0.00 | 0.00 | 84 | 1012.0 |
| 20260904063820 | 67 | 245 | 4.0 | 11.0 | 0.00 | 0.00 | 0.00 | 84 | 1012.1 |
| 20260904063322 | 67 | 263 | 5.0 | 11.0 | 0.00 | 0.00 | 0.00 | 84 | 1012.2 |
| 20260904062824 | 67 | 155 | 4.0 | 9.0 | 0.00 | 0.00 | 0.00 | 85 | 1012.2 |
| 20260904062327 | 66 | 228 | 4.0 | 9.0 | 0.00 | 0.00 | 0.00 | 85 | 1012.3 |
| 20260904061827 | 66 | 257 | 2.0 | 6.0 | 0.00 | 0.00 | 0.00 | 85 | 1012.3 |
| 20260904061341 | 66 | 250 | 3.0 | 6.0 | 0.00 | 0.00 | 0.00 | 86 | 1012.3 |
| 20260904060819 | 66 | 244 | 4.0 | 6.0 | 0.00 | 0.00 | 0.00 | 86 | 1012.5 |
| 20260904060340 | 66 | 207 | 3.0 | 6.0 | 0.00 | 0.00 | 0.00 | 86 | 1012.5 |
| 20260904055820 | 65 | 222 | 3.0 | 6.0 | 0.00 | 0.00 | 0.00 | 86 | 1012.5 |
| 20260904055319 | 65 | 278 | 3.0 | 7.0 | 0.00 | 0.00 | 0.00 | 87 | 1012.7 |
| 20260904054821 | 65 | 246 | 2.0 | 7.0 | 0.00 | 0.00 | 0.00 | 87 | 1012.8 |
| 20260904054320 | 65 | 231 | 3.0 | 8.0 | 0.00 | 0.00 | 0.00 | 87 | 1012.7 |
| 20260904053815 | 65 | 186 | 4.0 | 8.0 | 0.00 | 0.00 | 0.00 | 87 | 1012.8 |
| 20260904053314 | 65 | 252 | 4.0 | 7.0 | 0.00 | 0.00 | 0.00 | 87 | 1012.9 |
| 20260904052817 | 65 | 236 | 4.0 | 7.0 | 0.00 | 0.00 | 0.00 | 88 | 1012.9 |
| 20260904052339 | 64 | 248 | 2.0 | 7.0 | 0.00 | 0.00 | 0.00 | 88 | 1012.7 |
| 20260904051820 | 64 | 286 | 4.0 | 7.0 | 0.00 | 0.00 | 0.00 | 88 | 1012.8 |
| 20260904051322 | 64 | 260 | 4.0 | 8.0 | 0.00 | 0.00 | 0.00 | 88 | 1012.9 |
| 20260904050825 | 64 | 278 | 4.0 | 8.0 | 0.00 | 0.00 | 0.00 | 88 | 1012.9 |
| 20260904050327 | 64 | 243 | 3.0 | 6.0 | 0.00 | 0.00 | 0.00 | 88 | 1012.9 |
| 20260904045830 | 64 | 225 | 3.0 | 8.0 | 0.00 | 0.00 | 0.00 | 88 | 1012.9 |
| 20260904045333 | 64 | 257 | 2.0 | 8.0 | 0.00 | 0.00 | 0.00 | 88 | 1012.9 |
| 20260904044815 | 64 | 223 | 2.0 | 8.0 | 0.00 | 0.00 | 0.00 | 88 | 1013.1 |
| 20260904044318 | 64 | 265 | 3.0 | 7.0 | 0.00 | 0.00 | 0.00 | 88 | 1013.1 |
| 20260904043840 | 64 | 269 | 3.0 | 6.0 | 0.00 | 0.00 | 0.00 | 88 | 1013.1 |
| 20260904043322 | 64 | 278 | 3.0 | 6.0 | 0.00 | 0.00 | 0.00 | 88 | 1013.2 |
| 20260904042824 | 64 | 248 | 2.0 | 6.0 | 0.00 | 0.00 | 0.00 | 87 | 1013.1 |
| 20260904042325 | 64 | 238 | 2.0 | 5.0 | 0.00 | 0.00 | 0.00 | 87 | 1013.2 |
| 20260904041827 | 64 | 247 | 3.0 | 6.0 | 0.00 | 0.00 | 0.00 | 87 | 1013.4 |
| 20260904041347 | 64 | 227 | 2.0 | 6.0 | 0.00 | 0.00 | 0.00 | 87 | 1013.4 |
| 20260904040826 | 65 | 258 | 2.0 | 5.0 | 0.00 | 0.00 | 0.00 | 86 | 1013.3 |
| 20260904040327 | 65 | 216 | 2.0 | 7.0 | 0.00 | 0.00 | 0.00 | 86 | 1013.4 |
| 20260904035828 | 65 | 276 | 3.0 | 10.0 | 0.00 | 0.00 | 0.00 | 86 | 1013.3 |
| 20260904035330 | 65 | 270 | 4.0 | 10.0 | 0.00 | 0.00 | 0.00 | 86 | 1013.2 |
| 20260904034852 | 65 | 187 | 3.0 | 9.0 | 0.00 | 0.00 | 0.00 | 86 | 1013.2 |
| 20260904034353 | 65 | 251 | 4.0 | 7.0 | 0.00 | 0.00 | 0.00 | 86 | 1013.4 |
| 20260904033813 | 65 | 225 | 3.0 | 7.0 | 0.00 | 0.00 | 0.00 | 86 | 1013.5 |
| 20260904033335 | 65 | 244 | 3.0 | 8.0 | 0.00 | 0.00 | 0.00 | 86 | 1013.5 |
| 20260904032838 | 65 | 226 | 4.0 | 9.0 | 0.00 | 0.00 | 0.00 | 85 | 1013.7 |
| 20260904032343 | 65 | 269 | 4.0 | 9.0 | 0.00 | 0.00 | 0.00 | 85 | 1013.7 |
| 20260904031846 | 65 | 212 | 4.0 | 6.0 | 0.00 | 0.00 | 0.00 | 85 | 1013.6 |
| 20260904031330 | 65 | 255 | 3.0 | 6.0 | 0.00 | 0.00 | 0.00 | 85 | 1013.7 |
| 20260904030832 | 65 | 240 | 3.0 | 6.0 | 0.00 | 0.00 | 0.00 | 85 | 1013.6 |
| 20260904030314 | 65 | 266 | 3.0 | 6.0 | 0.00 | 0.00 | 0.00 | 85 | 1013.7 |
| 20260904025817 | 65 | 272 | 3.0 | 6.0 | 0.00 | 0.00 | 0.00 | 86 | 1013.6 |
| 20260904025340 | 65 | 227 | 2.0 | 6.0 | 0.00 | 0.00 | 0.00 | 85 | 1013.7 |
| 20260904024820 | 65 | 255 | 3.0 | 6.0 | 0.00 | 0.00 | 0.00 | 85 | 1013.8 |
| 20260904024341 | 65 | 261 | 3.0 | 7.0 | 0.00 | 0.00 | 0.00 | 85 | 1013.8 |
| 20260904023820 | 65 | 266 | 3.0 | 8.0 | 0.00 | 0.00 | 0.00 | 85 | 1013.8 |
| 20260904023320 | 65 | 257 | 3.0 | 8.0 | 0.00 | 0.00 | 0.00 | 85 | 1013.6 |
| 20260904022841 | 65 | 257 | 1.0 | 6.0 | 0.00 | 0.00 | 0.00 | 85 | 1013.8 |
| 20260904022320 | 65 | 283 | 3.0 | 8.0 | 0.00 | 0.00 | 0.00 | 85 | 1013.9 |
| 20260904021841 | 65 | 244 | 4.0 | 9.0 | 0.00 | 0.00 | 0.00 | 85 | 1014.0 |
| 20260904021320 | 65 | 267 | 5.0 | 9.0 | 0.00 | 0.00 | 0.00 | 85 | 1014.0 |
| 20260904020841 | 65 | 259 | 4.0 | 10.0 | 0.00 | 0.00 | 0.00 | 85 | 1014.0 |
| 20260904020341 | 65 | 272 | 4.0 | 7.0 | 0.00 | 0.00 | 0.00 | 85 | 1014.0 |
| 20260904015821 | 65 | 263 | 2.0 | 6.0 | 0.00 | 0.00 | 0.00 | 85 | 1014.0 |
| 20260904015322 | 65 | 248 | 3.0 | 9.0 | 0.00 | 0.00 | 0.00 | 85 | 1014.0 |
| 20260904014823 | 65 | 277 | 5.0 | 9.0 | 0.00 | 0.00 | 0.00 | 85 | 1014.0 |
| 20260904014324 | 65 | 249 | 4.0 | 8.0 | 0.00 | 0.00 | 0.00 | 85 | 1014.0 |
| 20260904013826 | 65 | 257 | 3.0 | 8.0 | 0.00 | 0.00 | 0.00 | 85 | 1013.9 |
| 20260904013329 | 65 | 271 | 3.0 | 9.0 | 0.00 | 0.00 | 0.00 | 85 | 1014.0 |
| 20260904012812 | 65 | 239 | 4.0 | 8.0 | 0.00 | 0.00 | 0.00 | 85 | 1014.1 |
| 20260904012314 | 65 | 298 | 3.0 | 9.0 | 0.00 | 0.00 | 0.00 | 85 | 1014.0 |
| 20260904011817 | 65 | 266 | 4.0 | 8.0 | 0.00 | 0.00 | 0.00 | 84 | 1014.0 |
| 20260904011319 | 65 | 254 | 4.0 | 7.0 | 0.00 | 0.00 | 0.00 | 84 | 1013.8 |
| 20260904010822 | 65 | 271 | 4.0 | 6.0 | 0.00 | 0.00 | 0.00 | 84 | 1013.9 |
| 20260904010325 | 65 | 230 | 3.0 | 7.0 | 0.00 | 0.00 | 0.00 | 84 | 1014.0 |
| 20260904005826 | 65 | 219 | 4.0 | 8.0 | 0.00 | 0.00 | 0.00 | 84 | 1013.9 |
| 20260904005328 | 65 | 237 | 2.0 | 8.0 | 0.00 | 0.00 | 0.00 | 84 | 1013.9 |
| 20260904004830 | 65 | 268 | 3.0 | 8.0 | 0.00 | 0.00 | 0.00 | 84 | 1014.0 |
| 20260904004341 | 65 | 257 | 5.0 | 8.0 | 0.00 | 0.00 | 0.00 | 84 | 1014.1 |
| 20260904003823 | 65 | 227 | 4.0 | 9.0 | 0.00 | 0.00 | 0.00 | 84 | 1014.1 |
| 20260904003326 | 65 | 249 | 4.0 | 9.0 | 0.00 | 0.00 | 0.00 | 84 | 1014.1 |
| 20260904002851 | 65 | 240 | 3.0 | 7.0 | 0.00 | 0.00 | 0.00 | 84 | 1014.1 |
| 20260904002313 | 65 | 283 | 4.0 | 9.0 | 0.00 | 0.00 | 0.00 | 84 | 1014.1 |
| 20260904001818 | 65 | 273 | 4.0 | 8.0 | 0.00 | 0.00 | 0.00 | 83 | 1014.2 |
| 20260904001324 | 65 | 272 | 4.0 | 8.0 | 0.00 | 0.00 | 0.00 | 84 | 1014.1 |
| 20260904000825 | 65 | 246 | 3.0 | 8.0 | 0.00 | 0.00 | 0.00 | 83 | 1014.2 |
| 20260904000328 | 65 | 273 | 3.0 | 7.0 | 0.00 | 0.00 | 0.00 | 83 | 1014.3 |
| 20260903235828 | 65 | 238 | 4.0 | 7.0 | 0.00 | 0.00 | 0.00 | 83 | 1014.3 |
| 20260903235331 | 66 | 220 | 4.0 | 8.0 | 0.00 | 0.00 | 0.00 | 83 | 1014.4 |
| 20260903234833 | 66 | 258 | 4.0 | 10.0 | 0.00 | 0.00 | 0.00 | 83 | 1014.4 |
| 20260903234353 | 66 | 235 | 4.0 | 11.0 | 0.00 | 0.00 | 0.00 | 82 | 1014.4 |
| 20260903233814 | 66 | 262 | 6.0 | 11.0 | 0.00 | 0.00 | 0.00 | 82 | 1014.4 |
| 20260903233315 | 66 | 264 | 5.0 | 9.0 | 0.00 | 0.00 | 0.00 | 83 | 1014.4 |
| 20260903232817 | 66 | 269 | 4.0 | 8.0 | 0.00 | 0.00 | 0.00 | 83 | 1014.5 |
| 20260903232319 | 66 | 243 | 3.0 | 13.0 | 0.00 | 0.00 | 0.00 | 83 | 1014.5 |
| 20260903231821 | 66 | 251 | 5.0 | 13.0 | 0.00 | 0.00 | 0.00 | 82 | 1014.5 |
| 20260903231322 | 66 | 255 | 6.0 | 12.0 | 0.00 | 0.00 | 0.00 | 82 | 1014.7 |
| 20260903230823 | 66 | 262 | 5.0 | 10.0 | 0.00 | 0.00 | 0.00 | 82 | 1014.8 |
| 20260903230321 | 66 | 277 | 4.0 | 11.0 | 0.00 | 0.00 | 0.00 | 82 | 1014.8 |
| 20260903225843 | 66 | 229 | 5.0 | 11.0 | 0.00 | 0.00 | 0.00 | 83 | 1014.6 |
| 20260903225323 | 65 | 276 | 5.0 | 9.0 | 0.00 | 0.00 | 0.00 | 83 | 1014.6 |
| 20260903224824 | 65 | 259 | 5.0 | 9.0 | 0.00 | 0.00 | 0.00 | 83 | 1014.7 |
| 20260903224325 | 65 | 270 | 4.0 | 12.0 | 0.00 | 0.00 | 0.00 | 83 | 1014.7 |
| 20260903223826 | 65 | 276 | 4.0 | 12.0 | 0.00 | 0.00 | 0.00 | 83 | 1014.7 |
| 20260903223329 | 65 | 288 | 6.0 | 11.0 | 0.00 | 0.00 | 0.00 | 83 | 1014.7 |
| 20260903222814 | 65 | 254 | 3.0 | 9.0 | 0.00 | 0.00 | 0.00 | 83 | 1014.6 |
| 20260903222318 | 65 | 276 | 5.0 | 10.0 | 0.00 | 0.00 | 0.00 | 83 | 1014.6 |
| 20260903221822 | 65 | 271 | 6.0 | 13.0 | 0.00 | 0.00 | 0.00 | 83 | 1014.6 |
| 20260903221326 | 65 | 252 | 6.0 | 13.0 | 0.00 | 0.00 | 0.00 | 83 | 1014.6 |
| 20260903220829 | 65 | 225 | 5.0 | 10.0 | 0.00 | 0.00 | 0.00 | 83 | 1014.6 |
| 20260903220331 | 65 | 269 | 5.0 | 10.0 | 0.00 | 0.00 | 0.00 | 84 | 1014.6 |
| 20260903215826 | 65 | 281 | 5.0 | 9.0 | 0.00 | 0.00 | 0.00 | 84 | 1014.6 |
| 20260903215328 | 65 | 263 | 4.0 | 9.0 | 0.00 | 0.00 | 0.00 | 83 | 1014.6 |
| 20260903214812 | 65 | 257 | 5.0 | 11.0 | 0.00 | 0.00 | 0.00 | 83 | 1014.6 |
| 20260903214314 | 65 | 271 | 5.0 | 11.0 | 0.00 | 0.00 | 0.00 | 83 | 1014.6 |
| 20260903213835 | 65 | 228 | 6.0 | 11.0 | 0.00 | 0.00 | 0.00 | 83 | 1014.6 |
| 20260903213316 | 65 | 276 | 4.0 | 13.0 | 0.00 | 0.00 | 0.00 | 83 | 1014.6 |
| 20260903212816 | 65 | 236 | 5.0 | 14.0 | 0.00 | 0.00 | 0.00 | 83 | 1014.6 |
| 20260903212317 | 65 | 280 | 5.0 | 14.0 | 0.00 | 0.00 | 0.00 | 83 | 1014.7 |
| 20260903211840 | 65 | 260 | 5.0 | 7.0 | 0.00 | 0.00 | 0.00 | 84 | 1014.8 |
| 20260903211320 | 65 | 236 | 4.0 | 10.0 | 0.00 | 0.00 | 0.00 | 84 | 1014.8 |
| 20260903210822 | 65 | 274 | 5.0 | 10.0 | 0.00 | 0.00 | 0.00 | 84 | 1014.8 |
| 20260903210324 | 65 | 283 | 4.0 | 9.0 | 0.00 | 0.00 | 0.00 | 84 | 1014.7 |
| 20260903205827 | 65 | 278 | 4.0 | 10.0 | 0.00 | 0.00 | 0.00 | 84 | 1014.6 |
| 20260903205328 | 65 | 233 | 3.0 | 12.0 | 0.00 | 0.00 | 0.00 | 84 | 1014.7 |
| 20260903204831 | 65 | 261 | 6.0 | 12.0 | 0.00 | 0.00 | 0.00 | 84 | 1014.6 |
| 20260903204313 | 65 | 258 | 4.0 | 11.0 | 0.00 | 0.00 | 0.00 | 84 | 1014.7 |
| 20260903203814 | 65 | 244 | 3.0 | 11.0 | 0.00 | 0.00 | 0.00 | 84 | 1014.9 |
| 20260903203338 | 65 | 282 | 4.0 | 11.0 | 0.00 | 0.00 | 0.00 | 84 | 1014.9 |
| 20260903202821 | 65 | 256 | 4.0 | 10.0 | 0.00 | 0.00 | 0.00 | 84 | 1015.0 |
| 20260903202326 | 65 | 261 | 6.0 | 10.0 | 0.00 | 0.00 | 0.00 | 84 | 1015.0 |
| 20260903201829 | 65 | 264 | 4.0 | 11.0 | 0.00 | 0.00 | 0.00 | 83 | 1015.1 |
| 20260903201313 | 65 | 250 | 4.0 | 12.0 | 0.00 | 0.00 | 0.00 | 83 | 1014.9 |
| 20260903200819 | 65 | 236 | 6.0 | 12.0 | 0.00 | 0.00 | 0.00 | 83 | 1014.9 |
| 20260903200323 | 65 | 248 | 5.0 | 11.0 | 0.00 | 0.00 | 0.00 | 83 | 1014.8 |
| 20260903195824 | 65 | 257 | 4.0 | 12.0 | 0.00 | 0.00 | 0.00 | 83 | 1014.7 |
| 20260903195326 | 65 | 255 | 6.0 | 12.0 | 0.00 | 0.00 | 0.00 | 83 | 1014.7 |
| 20260903194828 | 65 | 250 | 6.0 | 12.0 | 0.00 | 0.00 | 0.00 | 83 | 1014.7 |
| 20260903194330 | 65 | 218 | 5.0 | 12.0 | 0.00 | 0.00 | 0.00 | 82 | 1014.9 |
| 20260903193833 | 66 | 283 | 4.0 | 12.0 | 0.00 | 0.00 | 0.00 | 82 | 1014.9 |
| 20260903193313 | 66 | 264 | 5.0 | 12.0 | 0.00 | 0.00 | 0.00 | 82 | 1014.9 |
| 20260903192814 | 66 | 272 | 6.0 | 12.0 | 0.00 | 0.00 | 0.00 | 82 | 1014.8 |
| 20260903192315 | 66 | 210 | 6.0 | 13.0 | 0.00 | 0.00 | 0.00 | 82 | 1014.8 |
| 20260903191818 | 66 | 264 | 6.0 | 13.0 | 0.00 | 0.00 | 0.00 | 82 | 1014.9 |
| 20260903191322 | 66 | 261 | 5.0 | 13.0 | 0.00 | 0.00 | 0.00 | 82 | 1014.9 |
| 20260903190826 | 66 | 270 | 7.0 | 12.0 | 0.00 | 0.00 | 0.00 | 82 | 1014.9 |
| 20260903190331 | 66 | 269 | 4.0 | 13.0 | 0.00 | 0.00 | 0.00 | 82 | 1014.9 |
| 20260903185815 | 66 | 243 | 5.0 | 13.0 | 0.00 | 0.00 | 0.00 | 81 | 1014.9 |
| 20260903185318 | 66 | 285 | 6.0 | 11.0 | 0.00 | 0.00 | 0.00 | 81 | 1015.0 |
| 20260903184841 | 66 | 272 | 5.0 | 13.0 | 0.00 | 0.00 | 0.00 | 81 | 1014.9 |
| 20260903184322 | 66 | 223 | 5.0 | 13.0 | 0.00 | 0.00 | 0.00 | 81 | 1014.8 |
| 20260903183824 | 66 | 266 | 6.0 | 18.0 | 0.00 | 0.00 | 0.00 | 81 | 1014.9 |
| 20260903183317 | 66 | 259 | 10.0 | 18.0 | 0.00 | 0.00 | 0.00 | 81 | 1014.9 |
| 20260903182818 | 67 | 274 | 7.0 | 17.0 | 0.00 | 0.00 | 0.00 | 80 | 1014.7 |
| 20260903182338 | 67 | 269 | 9.0 | 17.0 | 0.00 | 0.00 | 0.00 | 80 | 1014.8 |
| 20260903181817 | 67 | 248 | 7.0 | 14.0 | 0.00 | 0.00 | 0.00 | 80 | 1014.8 |
| 20260903181318 | 67 | 268 | 10.0 | 14.0 | 0.00 | 0.00 | 0.00 | 80 | 1014.7 |
| 20260903180817 | 67 | 272 | 5.0 | 16.0 | 0.00 | 0.00 | 0.00 | 79 | 1014.6 |
| 20260903180328 | 67 | 269 | 9.0 | 16.0 | 0.00 | 0.00 | 0.00 | 79 | 1014.6 |
| 20260903175831 | 67 | 264 | 9.0 | 16.0 | 0.00 | 0.00 | 0.00 | 79 | 1014.6 |
| 20260903175314 | 67 | 287 | 6.0 | 15.0 | 0.00 | 0.00 | 0.00 | 79 | 1014.6 |
| 20260903174817 | 68 | 270 | 6.0 | 13.0 | 0.00 | 0.00 | 0.00 | 78 | 1014.7 |
| 20260903174318 | 68 | 245 | 7.0 | 15.0 | 0.00 | 0.00 | 0.00 | 77 | 1014.7 |
| 20260903173821 | 68 | 273 | 8.0 | 22.0 | 0.00 | 0.00 | 0.00 | 77 | 1014.5 |
| 20260903173324 | 68 | 234 | 11.0 | 22.0 | 0.00 | 0.00 | 0.00 | 77 | 1014.5 |
| 20260903172827 | 68 | 281 | 9.0 | 22.0 | 0.00 | 0.00 | 0.00 | 77 | 1014.5 |